Weather History for Port Hedland, WE

Change the Weather History Date:

Monday, October 8, 2012

  Actual Average Record
Temperature  
Mean Temperature 85 °F -  
Max Temperature 102 °F 95 °F 102 °F (2012)
Min Temperature 68 °F 66 °F 59 °F (2002)
Cooling Degree Days 20    
Growing Degree Days 35 (Base 50)    
Moisture  
Dew Point 58 °F    
Average Humidity 48    
Maximum Humidity 94    
Minimum Humidity 6    
Precipitation  
Precipitation 0.00 in 0.00 in - ()
Sea Level Pressure  
Sea Level Pressure 29.80 in    
Wind  
Wind Speed 10 mph ()    
Max Wind Speed 20 mph    
Max Gust Speed -    
Visibility 7.5 miles    
Events      
Averages and records for this station are not official NWS values.
T = Trace of Precipitation, MM = Missing Value Source: Averaged Metar Reports

Daily Weather History Graph

Daily Weather History Graph

Search for Another Location

Airport:

Trip Planner

Search our weather history database for the weather conditions in past years. The results will help you decide how hot, cold, wet, or windy it might be!

Date:

Astronomy

Oct. 08, 2012 Rise Set
Actual Time 5:40 AM AWST 6:05 PM AWST
Civil Twilight 5:18 AM AWST 6:27 PM AWST
Nautical Twilight 4:52 AM AWST 6:53 PM AWST
Astronomical Twilight 4:26 AM AWST 7:20 PM AWST
Moon 12:02 AM AWST (10/8) 11:23 AM AWST (10/8)
Length of Visible Light 13h 09m
Length of Day
12h 24m
Waning Gibbous, 51% of the Moon is Illuminated
Oct 8
Waning Gibbous
Oct 8
Last Quarter
Oct 15
New
Oct 22
First Quarter
Oct 30
Full

Hourly Weather History & Observations

Time (AWST) Temp. Heat Index Dew Point Humidity Pressure Visibility Wind Dir Wind Speed Gust Speed Precip Events Conditions
12:00 AM 76 °F - 67 °F 67% 29.82 in - West 11.5 mph - -  
12:00 AM 75.2 °F - 68.0 °F 78% 29.80 in 6.2 mi West 11.5 mph - N/A   Unknown
12:30 AM 75.2 °F - 68.0 °F 78% 29.80 in 6.2 mi West 11.5 mph - N/A   Unknown
1:00 AM 73.4 °F - 68.0 °F 83% 29.80 in 6.2 mi West 10.4 mph - N/A   Unknown
1:30 AM 73.4 °F - 68.0 °F 83% 29.77 in 6.2 mi West 10.4 mph - N/A   Unknown
2:00 AM 72 °F - 68 °F 82% 29.78 in - West 10.4 mph - -  
2:00 AM 71.6 °F - 68.0 °F 88% 29.77 in 6.2 mi West 10.4 mph - N/A   Unknown
2:30 AM 71.6 °F - 68.0 °F 88% 29.77 in 6.2 mi West 10.4 mph - N/A   Unknown
3:00 AM 71 °F - 68 °F 87% 29.78 in - WSW 6.9 mph - -  
3:00 AM 71.6 °F - 68.0 °F 88% 29.77 in 6.2 mi WSW 6.9 mph - N/A   Unknown
3:30 AM 69.8 °F - 68.0 °F 94% 29.77 in 6.2 mi WSW 8.1 mph - N/A   Unknown
4:00 AM 69.8 °F - 68.0 °F 94% 29.77 in 6.2 mi West 10.4 mph - N/A   Unknown
4:30 AM 69.8 °F - 68.0 °F 94% 29.77 in 6.2 mi WSW 9.2 mph - N/A   Unknown
5:00 AM 69 °F - 66 °F 89% 29.80 in - WSW 6.9 mph - -  
5:00 AM 69.8 °F - 66.2 °F 88% 29.80 in 6.2 mi WSW 6.9 mph - N/A   Unknown
5:30 AM 68.0 °F - 66.2 °F 94% 29.80 in 6.2 mi WSW 5.8 mph - N/A   Unknown
6:00 AM 69 °F - 66 °F 86% 29.83 in 12 mi WSW 4.6 mph - -   Haze
6:00 AM 68.0 °F - 66.2 °F 94% 29.83 in - WSW 4.6 mph - N/A   Clear
6:30 AM 69.8 °F - 64.4 °F 83% 29.83 in - South 4.6 mph - N/A   Clear
7:00 AM 73.4 °F - 64.4 °F 73% 29.83 in - South 3.5 mph - N/A   Clear
7:30 AM 78.8 °F - 59.0 °F 51% 29.86 in - WSW 8.1 mph - N/A   Clear
8:00 AM 85 °F - 53 °F 23% 29.86 in - SSW 6.9 mph - -  
8:00 AM 86.0 °F 84.2 °F 53.6 °F 33% 29.86 in - SSW 6.9 mph - N/A   Clear
8:30 AM 89.6 °F - 48.2 °F 24% 29.86 in - South 8.1 mph - N/A   Clear
9:00 AM 94 °F - 41 °F 8% 29.85 in 19 mi SE 10.4 mph - -   Partly Cloudy
9:00 AM 95.0 °F - 41.0 °F 15% 29.83 in - SE 10.4 mph - N/A   Clear
9:30 AM 96.8 °F - 37.4 °F 13% 29.83 in - ESE 8.1 mph - N/A   Clear
10:00 AM 98.6 °F - 35.6 °F 11% 29.83 in - SSE 8.1 mph - N/A   Clear
10:30 AM 100.4 °F - 37.4 °F 11% 29.83 in - SE 8.1 mph - N/A   Clear
11:00 AM 102 °F - 39 °F 6% 29.83 in - SSE 5.8 mph - -  
11:00 AM 102.2 °F - 39.2 °F 11% 29.83 in - SSE 5.8 mph - N/A   Clear
11:30 AM 100.4 °F 98.4 °F 53.6 °F 21% 29.80 in - SE 5.8 mph - N/A   Clear
12:00 PM 100 °F - 56 °F 15% 29.80 in 19 mi NW 15.0 mph - -   Partly Cloudy
12:00 PM 100.4 °F 98.8 °F 55.4 °F 22% 29.80 in - NW 15.0 mph - N/A   Clear
12:30 PM 98.6 °F 96.4 °F 53.6 °F 22% 29.77 in - NNW 13.8 mph - N/A   Clear
1:00 PM 100.4 °F - 44.6 °F 15% 29.77 in - NW 16.1 mph - N/A   Clear
1:30 PM 96.8 °F - 48.2 °F 19% 29.77 in - NNW 17.3 mph - N/A   Clear
2:00 PM 97 °F - 53 °F 14% 29.76 in - NW 19.6 mph - -  
2:00 PM 96.8 °F 94.4 °F 53.6 °F 23% 29.74 in - NW 19.6 mph - N/A   Clear
2:30 PM 96.8 °F 94.4 °F 53.6 °F 23% 29.74 in - NW 17.3 mph - N/A   Clear
3:00 PM 97 °F - 57 °F 18% 29.74 in 19 mi WNW 17.3 mph - -   Partly Cloudy
3:00 PM 96.8 °F 95.8 °F 57.2 °F 27% 29.74 in - WNW 17.3 mph - N/A   Clear
3:30 PM 95.0 °F 93.7 °F 57.2 °F 28% 29.74 in 6.2 mi NW 19.6 mph - N/A   Unknown
4:00 PM 93.2 °F 91.9 °F 57.2 °F 30% 29.74 in 6.2 mi WNW 18.4 mph - N/A   Unknown
4:30 PM 91.4 °F 89.4 °F 55.4 °F 29% 29.74 in 6.2 mi WNW 19.6 mph - N/A   Unknown
5:00 PM 90 °F - 58 °F 25% 29.75 in - WNW 19.6 mph - -  
5:00 PM 89.6 °F 88.9 °F 59.0 °F 36% 29.74 in 6.2 mi WNW 19.6 mph - N/A   Unknown
5:30 PM 87.8 °F 87.1 °F 59.0 °F 38% 29.74 in 6.2 mi WNW 18.4 mph - N/A   Unknown
6:00 PM 85 °F - 61 °F 34% 29.78 in - West 18.4 mph - -  
6:00 PM 86.0 °F 86.1 °F 60.8 °F 43% 29.77 in 6.2 mi West 18.4 mph - N/A   Unknown
6:30 PM 84.2 °F 83.8 °F 59.0 °F 42% 29.77 in 6.2 mi West 16.1 mph - N/A   Unknown
7:00 PM 82.4 °F 82.5 °F 59.0 °F 45% 29.80 in 6.2 mi West 15.0 mph - N/A   Unknown
7:30 PM 82.4 °F 82.5 °F 59.0 °F 45% 29.80 in 6.2 mi West 15.0 mph - N/A   Unknown
8:00 PM 81 °F - 58 °F 34% 29.82 in - West 12.7 mph - -  
8:00 PM 80.6 °F 80.8 °F 57.2 °F 45% 29.80 in 6.2 mi West 12.7 mph - N/A   Unknown
8:30 PM 80.6 °F 80.8 °F 57.2 °F 45% 29.83 in 6.2 mi WSW 12.7 mph - N/A   Unknown
9:00 PM 79 °F - 56 °F 35% 29.83 in - WSW 10.4 mph - -  
9:00 PM 78.8 °F - 55.4 °F 44% 29.83 in 6.2 mi WSW 10.4 mph - N/A   Unknown
9:30 PM 77.0 °F - 57.2 °F 50% 29.83 in 6.2 mi WSW 10.4 mph - N/A   Unknown
10:00 PM 77.0 °F - 57.2 °F 50% 29.83 in 6.2 mi West 10.4 mph - N/A   Unknown
10:30 PM 77.0 °F - 57.2 °F 50% 29.83 in 6.2 mi WSW 10.4 mph - N/A   Unknown
11:00 PM 76 °F - 58 °F 44% 29.82 in - WSW 9.2 mph - -  
11:00 PM 75.2 °F - 59.0 °F 57% 29.80 in 6.2 mi WSW 9.2 mph - N/A   Unknown
11:30 PM 75.2 °F - 59.0 °F 57% 29.80 in 6.2 mi SW 8.1 mph - N/A   Unknown